Regional Weather Roundup
Issued by NWS Mt. Holly, NJ

Home | Current Version | Previous Version | Text Only | Print | Product List | Glossary On
Versions: 1 2 3 4 5 6 7 8 9 10 11 12 13 14 15 16 17 18 19 20 21 22 23 24 25 26 27 28 29 30 31 32 33 34 35 36 37 38 39 40 41 42 43 44 45 46 47 48 49 50
000
ASUS41 KPHI 010512
RWRPHI

REGIONAL WEATHER ROUNDUP
NATIONAL WEATHER SERVICE MOUNT HOLLY NJ
100 AM EDT SUN MAY 01 2016

NOTE:  "FAIR" INDICATES FEW OR NO CLOUDS BELOW 12,000 FEET WITH NO
SIGNIFICANT WEATHER AND/OR OBSTRUCTIONS TO VISIBILITY.

 * = STATION DOES NOT REPORT PRECIPITATION (E.G. RAIN, SNOW, ETC.)
        OR FOG.

NJZ015>026-010600-
SOUTHERN NEW JERSEY

CITY           SKY/WX    TMP DP  RH WIND       PRES   REMARKS
POMONA         CLOUDY    49  43  80 SE5       30.23F
WILDWOOD*      MOCLDY    48  43  81 E7        30.22F
MILLVILLE      CLOUDY    47  42  83 E5        30.22F
WRIGHTSTOWN    CLOUDY    45  39  81 SE3       30.20F
MOUNT HOLLY    CLOUDY    47  40  76 CALM      30.22F
TRENTON        LGT RAIN  49  36  61 S6        30.22F

$$
NJZ001>014-010600-
NORTHERN NEW JERSEY

CITY           SKY/WX    TMP DP  RH WIND       PRES   REMARKS
SUSSEX         MOCLDY    48  42  80 CALM      30.20F
ANDOVER*         N/A     50  33  52 SE3       30.19F
MORRISTOWN     CLOUDY    46  37  71 CALM      30.23S
NEWARK         CLOUDY    51  39  63 S7        30.23F
TETERBORO      CLOUDY    51  36  56 S5        30.22F
CALDWELL       CLOUDY    51  36  56 S3        30.23F
SOMERVILLE     CLOUDY    49  36  61 SE3       30.21F
ALLAIRE*       MOCLDY    47  40  76 E5        30.24F
TOMS RIVER*    CLOUDY    43  37  81 CALM      30.24F

$$
PAZ043-044-047-054-055-060>062-066>071-010600-
EASTERN PENNSYLVANIA

CITY           SKY/WX    TMP DP  RH WIND       PRES   REMARKS
PHILADELPHIA   CLOUDY    51  36  56 S6        30.23S
NORTH PHILA    MOCLDY    50  39  66 SE5       30.24F
BLUE BELL*     CLOUDY    48  37  66 CALM      30.21S
DOYLESTOWN     CLOUDY    47  37  68 SE6       30.20F
QUAKERTOWN*    CLOUDY    50  37  62 S5        30.21S
PERKASIE*      CLOUDY    48  37  66 CALM      30.21F
POTTSTOWN      CLOUDY    49  45  86 S3        30.21F
LANCASTER      LGT RAIN  50  43  77 SE9       30.19F
COATESVILLE    CLOUDY    48  45  87 MISG      30.21F
READING        LGT RAIN  51  43  74 SE8       30.19S
ALLENTOWN      CLOUDY    53  39  59 S6        30.20S
MOUNT POCONO   CLOUDY    46  39  76 SE8       30.16F
HAZLETON       DRIZZLE   48  43  81 SE8       30.17S
LEHIGHTON      CLOUDY    52  43  71 S5        30.19S
WILKES BARRE   LGT RAIN  52  41  66 S8G16     30.15S

$$
DEZALL-MDZ008-012-015-019-020-010600-
DELAWARE AND EASTERN MARYLAND

CITY           SKY/WX    TMP DP  RH WIND       PRES   REMARKS
WILMINGTON     CLOUDY    50  38  63 SE7       30.22F
DOVER          CLOUDY    51  46  84 S3        30.21S
GEORGETOWN     CLOUDY    50  45  83 CALM      30.22S
EASTON         CLOUDY   N/A N/A N/A S3        30.25S
PATUXENT       CLOUDY    53  47  79 SE10      30.19F
OCEAN CITY     CLOUDY    51  46  83 SE7       30.21F
WALLOPS ISLAND CLOUDY    53  45  74 E7        30.21F
CAMBRIDGE      CLOUDY    48  43  81 CALM      30.21S
SALISBURY      CLOUDY    50  46  86 CALM      30.21S

$$
PAZ001-021-NYZ056-072-MDZ011-DCZ001-010600-
OTHER NEARBY LOCATIONS

CITY           SKY/WX    TMP DP  RH WIND       PRES   REMARKS
HARRISBURG     CLOUDY    53  48  83 SE12      30.16F
STATE COLLEGE  DRIZZLE   49  47  92 S3        30.10F
WILLIAMSPORT   RAIN      51  45  79 VRB5      30.14R
BINGHAMTON     CLOUDY    48  39  71 S8        30.13F
NEW YORK CITY  CLOUDY    50  32  50 VRB3      30.26S
BALTIMORE      CLOUDY    52  47  83 SE6       30.20S
WASHINGTON DC  LGT RAIN  54  50  86 SE8       30.20S

$$



USA.gov is the U.S. government's official web portal to all federal, state and local government web resources and services.